Regional Weather Roundup
Issued by NWS State College, PA

Home | Current Version | Previous Version | Text Only | Print | Product List | Glossary On
Versions: 1 2 3 4 5 6 7 8 9 10 11 12 13 14 15 16 17 18 19 20 21 22 23 24 25 26 27 28 29 30 31 32 33 34 35 36 37 38 39 40 41 42 43 44 45 46 47 48 49 50
000
ASUS41 KCTP 301010
RWRCTP

REGIONAL WEATHER ROUNDUP
NATIONAL WEATHER SERVICE STATE COLLEGE PA
600 AM EDT TUE JUN 30 2015

Note: "fair" indicates few or no clouds below 12,000 feet with no
significant weather and/or obstructions to visibility.

* = STATION THAT DOES NOT REPORT PRECIPITATION /E.G. RAIN...SNOW...ETC/
    THUNDER OR FOG.

PAZ002>004-007>009-013>016-020>023-029>032-301100-
WESTERN PENNSYLVANIA

CITY           SKY/WX    TMP DP  RH WIND       PRES   REMARKS
ERIE           CLOUDY    62  58  86 E3        29.80F
MEADVILLE      HVY RAIN  61  59  93 CALM      29.83R VSB 3/4
FRANKLIN*      CLOUDY    61  57  88 SE8       29.85R
NEW CASTLE     CLOUDY    63  63 100 CALM      29.84R
BEAVER COUNTY  NOT AVBL
BUTLER*        CLOUDY    63  61  94 SW5       29.86R
PITTSBURGH INT CLOUDY    65  62  90 SW7       29.83R
PITTSBURGH     CLOUDY    64  59  83 S7        29.85R
INDIANA*       CLOUDY    64  63  94 CALM      29.89S
LATROBE        NOT AVBL
WASHINGTON CO* NOT AVBL
$$

PAZ004>006-010>012-017>019-024>028-033>037-041-042-045-046-049>053-301100-
CENTRAL PENNSYLVANIA

CITY           SKY/WX    TMP DP  RH WIND       PRES   REMARKS
BRADFORD       LGT RAIN  58  56  93 SE5       29.88F FOG
DUBOIS         CLOUDY    61  58  90 E8        29.86F
CLEARFIELD     LGT RAIN  59  58  96 NE7       29.89R FOG
JOHNSTOWN      LGT RAIN  62  58  86 S8        29.90R
ALTOONA        LGT RAIN  63  60  90 W5        29.89S
STATE COLLEGE  CLOUDY    61  59  94 CALM      29.89R
WILLIAMSPORT   LGT RAIN  65  61  87 E7        29.88S
SELINSGROVE    CLOUDY    64  62  93 CALM      29.90S
FT INDIANTOWN  CLOUDY    65  61  86 NE2       29.92S
CAPITAL CITY   CLOUDY    67  61  81 E6        29.90S
HARRISBURG     CLOUDY    68  62  81 E5        29.90R
YORK           CLOUDY    68  63  84 SE5       29.90S
$$

PAZ038>040-043-044-047-048-054-055-060>062-067>071-301100-
EASTERN PENNSYLVANIA

CITY           SKY/WX    TMP DP  RH WIND       PRES   REMARKS
SCRANTON       CLOUDY    67  58  72 NE6       29.93S
MOUNT POCONO   CLOUDY    61  56  83 E3        29.98S
ALLENTOWN      CLOUDY    64  59  83 E5        29.94S
QUAKERTOWN*    PTSUNNY   63  61  94 CALM      29.96S
READING        CLOUDY    66  59  78 CALM      29.92R
LANCASTER      MOCLDY    63  61  93 E3        29.92R
COATESVILLE    MOSUNNY   63  59  88 SE5       29.95S
POTTSTOWN      CLOUDY    65  59  81 NE3       29.96R
BLUE BELL      MOCLDY    64  63  94 CALM      29.94S
DOYLESTOWN     CLOUDY    62  59  90 CALM      29.95R
WILLOW GROVE   NOT AVBL
NORTH PHILA    CLOUDY    66  59  78 CALM      29.96S
PHILADELPHIA   MOCLDY    69  63  81 SE3       29.95R
$$


USA.gov is the U.S. government's official web portal to all federal, state and local government web resources and services.